When you browse on this site, cookies collect data to enhance your experience and personalize the content and advertising you see.
Visit our Privacy Policy to learn more. By continuing to use the site, you agree to this use of cookies and data.
  • In Norway
  • List of Countries
  • For 7 days
  • Water Temperature
  • Satellite Maps
  • Weather Map
  • Weather Widgets
  • user-avatar
    Login

    Hourly Weather Salzburg

    Today, 24 May, Friday

    Time Temperature Precipitation Wind Pressure Humidity
    00:00 +2°C° 0 mm 1 mps 625 mmHg 93%
    01:00 +2°C° 0 mm 1 mps 624 mmHg 90%
    02:00 +1°C° 0 mm 1 mps 624 mmHg 87%
    03:00 +1°C° 0 mm 1 mps 624 mmHg 85%
    04:00 +1°C° 0 mm 1 mps 624 mmHg 82%
    05:00 +3°C° 0 mm 1 mps 625 mmHg 75%
    06:00 +6°C° 0 mm 1 mps 625 mmHg 67%
    07:00 +8°C° 0 mm 0 mps 626 mmHg 62%
    08:00 +9°C° 0 mm 0 mps 626 mmHg 56%
    09:00 +12°C° 0 mm 1 mps 627 mmHg 49%
    10:00 +14°C° 0 mm 1 mps 627 mmHg 43%
    11:00 +14°C° 0 mm 1 mps 627 mmHg 41%
    12:00 +15°C° 0 mm 1 mps 627 mmHg 40%
    13:00 +15°C° 0 mm 2 mps 627 mmHg 39%
    14:00 +15°C° 0 mm 2 mps 627 mmHg 41%
    15:00 +14°C° 0 mm 2 mps 627 mmHg 43%
    16:00 +14°C° 0 mm 2 mps 627 mmHg 46%
    17:00 +12°C° 0 mm 1 mps 626 mmHg 56%
    18:00 +11°C° 0 mm 1 mps 625 mmHg 67%
    19:00 +9°C° 0 mm 1 mps 624 mmHg 78%
    20:00 +7°C° 0 mm 1 mps 624 mmHg 82%
    21:00 +6°C° 0 mm 1 mps 624 mmHg 85%
    22:00 +5°C° 0 mm 1 mps 624 mmHg 89%
    23:00 +5°C° 0 mm 1 mps 624 mmHg 88%

    Tomorrow, 25 May, Saturday

    Time Temperature Precipitation Wind Pressure Humidity
    00:00 +5°C° 0 mm 1 mps 624 mmHg 87%
    01:00 +4°C° 0 mm 1 mps 624 mmHg 85%
    02:00 +4°C° 0 mm 1 mps 624 mmHg 85%
    03:00 +4°C° 0 mm 1 mps 624 mmHg 84%
    04:00 +4°C° 0 mm 1 mps 624 mmHg 83%
    05:00 +6°C° 0 mm 1 mps 625 mmHg 77%
    06:00 +7°C° 0 mm 0 mps 625 mmHg 71%
    07:00 +9°C° 0 mm 0 mps 626 mmHg 65%
    08:00 +11°C° 0 mm 0 mps 627 mmHg 60%
    09:00 +14°C° 0 mm 1 mps 627 mmHg 55%
    10:00 +15°C° 0 mm 1 mps 628 mmHg 50%
    11:00 +15°C° 0.4 mm 1 mps 627 mmHg 56%
    12:00 +15°C° 0.4 mm 1 mps 627 mmHg 61%
    13:00 +14°C° 0.4 mm 1 mps 627 mmHg 67%
    14:00 +13°C° 1.4 mm 1 mps 626 mmHg 74%
    15:00 +11°C° 1.4 mm 0 mps 626 mmHg 82%
    16:00 +10°C° 1.4 mm 0 mps 625 mmHg 90%
    17:00 +9°C° 0.9 mm 0 mps 625 mmHg 92%
    18:00 +8°C° 0.9 mm 0 mps 625 mmHg 94%
    19:00 +8°C° 0.9 mm 0 mps 625 mmHg 96%
    20:00 +7°C° 1 mm 0 mps 625 mmHg 96%
    21:00 +7°C° 1 mm 0 mps 625 mmHg 96%
    22:00 +6°C° 1 mm 0 mps 625 mmHg 97%
    23:00 +6°C° 2.1 mm 0 mps 625 mmHg 97%

    Day after tomorrow, 26 May, Sunday

    Time Temperature Precipitation Wind Pressure Humidity
    00:00 +6°C° 2.1 mm 0 mps 625 mmHg 98%
    01:00 +6°C° 2.1 mm 0 mps 625 mmHg 98%
    02:00 +6°C° 1.2 mm 0 mps 625 mmHg 98%
    03:00 +5°C° 1.2 mm 0 mps 625 mmHg 98%
    04:00 +5°C° 1.2 mm 0 mps 625 mmHg 98%
    05:00 +6°C° 0.1 mm 0 mps 625 mmHg 97%
    06:00 +6°C° 0.1 mm 0 mps 625 mmHg 96%
    07:00 +6°C° 0.1 mm 0 mps 625 mmHg 96%
    08:00 +7°C° 0.1 mm 0 mps 626 mmHg 92%
    09:00 +8°C° 0.1 mm 0 mps 626 mmHg 88%
    10:00 +10°C° 0.1 mm 1 mps 627 mmHg 85%
    11:00 +11°C° 0.2 mm 1 mps 627 mmHg 80%
    12:00 +13°C° 0.2 mm 1 mps 627 mmHg 75%
    13:00 +14°C° 0.2 mm 1 mps 627 mmHg 70%
    14:00 +14°C° 0.5 mm 1 mps 627 mmHg 71%
    15:00 +14°C° 0.5 mm 1 mps 627 mmHg 73%
    16:00 +14°C° 0.5 mm 1 mps 627 mmHg 75%
    17:00 +13°C° 0.8 mm 1 mps 626 mmHg 81%
    18:00 +12°C° 0.8 mm 1 mps 626 mmHg 87%
    19:00 +10°C° 0.8 mm 0 mps 626 mmHg 93%
    20:00 +9°C° 0.7 mm 0 mps 626 mmHg 94%
    21:00 +8°C° 0.7 mm 0 mps 625 mmHg 95%
    22:00 +7°C° 0.7 mm 0 mps 625 mmHg 96%
    23:00 +7°C° 0.3 mm 0 mps 625 mmHg 96%

    27 May, Monday

    Time Temperature Precipitation Wind Pressure Humidity
    00:00 +8°C° 0.3 mm 1 mps 625 mmHg 96%
    01:00 +7°C° 0.3 mm 1 mps 624 mmHg 96%
    02:00 +7°C° 0.2 mm 1 mps 624 mmHg 96%
    03:00 +6°C° 0.2 mm 0 mps 624 mmHg 96%
    04:00 +6°C° 0.2 mm 0 mps 624 mmHg 96%
    05:00 +7°C° 0.4 mm 0 mps 624 mmHg 95%
    06:00 +8°C° 0.4 mm 0 mps 624 mmHg 94%
    07:00 +8°C° 0.4 mm 0 mps 625 mmHg 93%
    08:00 +9°C° 0.7 mm 0 mps 625 mmHg 90%
    09:00 +10°C° 0.7 mm 0 mps 625 mmHg 88%
    10:00 +12°C° 0.7 mm 1 mps 625 mmHg 85%
    11:00 +12°C° 0.9 mm 1 mps 625 mmHg 85%
    12:00 +13°C° 0.9 mm 1 mps 625 mmHg 86%
    13:00 +13°C° 0.9 mm 1 mps 624 mmHg 86%
    14:00 +13°C° 0.5 mm 1 mps 624 mmHg 85%
    15:00 +13°C° 0.5 mm 1 mps 624 mmHg 84%
    16:00 +14°C° 0.5 mm 1 mps 624 mmHg 83%
    17:00 +13°C° 0.5 mm 1 mps 624 mmHg 87%
    18:00 +12°C° 0.5 mm 1 mps 623 mmHg 91%
    19:00 +11°C° 0.5 mm 1 mps 623 mmHg 95%
    20:00 +9°C° 0.6 mm 0 mps 622 mmHg 96%
    21:00 +9°C° 0.6 mm 0 mps 622 mmHg 97%
    22:00 +8°C° 0.6 mm 0 mps 622 mmHg 98%
    23:00 +8°C° 3.3 mm 0 mps 622 mmHg 98%

    28 May, Tuesday

    Time Temperature Precipitation Wind Pressure Humidity
    00:00 +8°C° 3.3 mm 0 mps 622 mmHg 98%
    01:00 +8°C° 3.3 mm 0 mps 621 mmHg 98%
    02:00 +7°C° 3.8 mm 0 mps 621 mmHg 98%
    03:00 +7°C° 3.8 mm 0 mps 620 mmHg 98%
    04:00 +7°C° 3.8 mm 0 mps 620 mmHg 98%
    05:00 +7°C° 2.2 mm 0 mps 620 mmHg 98%
    06:00 +7°C° 2.2 mm 0 mps 620 mmHg 98%
    07:00 +8°C° 2.2 mm 1 mps 620 mmHg 98%
    08:00 +8°C° 0.9 mm 1 mps 620 mmHg 97%
    09:00 +8°C° 0.9 mm 1 mps 620 mmHg 96%
    10:00 +8°C° 0.9 mm 1 mps 620 mmHg 96%
    11:00 +8°C° 1.1 mm 1 mps 620 mmHg 95%
    12:00 +9°C° 1.1 mm 1 mps 620 mmHg 94%
    13:00 +8°C° 1.1 mm 2 mps 620 mmHg 93%
    14:00 +7°C° 1.1 mm 2 mps 620 mmHg 94%
    15:00 +6°C° 1.1 mm 2 mps 620 mmHg 96%
    16:00 +5°C° 1.1 mm 2 mps 619 mmHg 98%
    17:00 +4°C° 0.5 mm 2 mps 620 mmHg 98%
    18:00 +5°C° 0.5 mm 1 mps 620 mmHg 98%
    19:00 +5°C° 0.5 mm 1 mps 620 mmHg 98%
    20:00 +5°C° 0.7 mm 1 mps 620 mmHg 98%
    21:00 +4°C° 0.7 mm 1 mps 621 mmHg 98%
    22:00 +4°C° 0.7 mm 1 mps 621 mmHg 98%
    23:00 +4°C° 1 mm 1 mps 621 mmHg 98%

    29 May, Wednesday

    Time Temperature Precipitation Wind Pressure Humidity
    00:00 +4°C° 1 mm 1 mps 621 mmHg 98%
    01:00 +4°C° 1 mm 1 mps 621 mmHg 98%
    02:00 +4°C° 1.5 mm 1 mps 621 mmHg 98%
    03:00 +3°C° 1.5 mm 1 mps 621 mmHg 98%
    04:00 +3°C° 1.5 mm 1 mps 621 mmHg 98%
    05:00 +3°C° 2.2 mm 1 mps 621 mmHg 98%
    06:00 +3°C° 2.2 mm 1 mps 622 mmHg 98%
    07:00 +3°C° 2.2 mm 1 mps 622 mmHg 98%
    08:00 +3°C° 1.8 mm 1 mps 622 mmHg 98%
    09:00 +3°C° 1.8 mm 1 mps 623 mmHg 97%
    10:00 +3°C° 1.8 mm 1 mps 623 mmHg 97%
    11:00 +3°C° 1.1 mm 1 mps 624 mmHg 97%
    12:00 +3°C° 1.1 mm 1 mps 624 mmHg 96%
    13:00 +3°C° 1.1 mm 1 mps 624 mmHg 96%
    14:00 +2°C° 0.4 mm 2 mps 625 mmHg 94%
    15:00 +2°C° 0.4 mm 2 mps 625 mmHg 93%
    16:00 +2°C° 0.4 mm 2 mps 625 mmHg 92%
    17:00 +2°C° 0.4 mm 2 mps 626 mmHg 93%
    18:00 +3°C° 0.4 mm 1 mps 626 mmHg 95%
    19:00 +2°C° 0.4 mm 1 mps 626 mmHg 96%
    20:00 +2°C° 0.3 mm 1 mps 627 mmHg 97%
    21:00 +2°C° 0.3 mm 1 mps 627 mmHg 97%
    22:00 +2°C° 0.3 mm 1 mps 627 mmHg 98%
    23:00 +1°C° 0.3 mm 1 mps 627 mmHg 97%
    Show more